| time (UTC) | temp F | wind direction | speed MPH | gust MPH | rain 1hr in | rain 24hr in | rain mn in | humidity % | barometer mb |
| 20260903211851 | 97 | 181 | 0.0 | 0.0 | 185.39 | 0.00 | 0.00 | 40 | 1014.4 |
| 20260903211351 | 97 | 181 | 0.0 | 0.0 | 185.39 | 0.00 | 0.00 | 39 | 1014.3 |
| 20260903210351 | 97 | 297 | 4.0 | 0.0 | 185.39 | 0.00 | 0.00 | 40 | 1014.2 |
| 20260903205851 | 97 | 280 | 5.0 | 0.0 | 185.39 | 0.00 | 0.00 | 40 | 1014.3 |
| 20260903204851 | 97 | 7 | 0.0 | 0.0 | 185.39 | 0.00 | 0.00 | 40 | 1014.2 |
| 20260903202851 | 97 | 24 | 0.0 | 0.0 | 185.39 | 0.00 | 0.00 | 41 | 1014.1 |
| 20260903202351 | 97 | 309 | 4.0 | 0.0 | 185.39 | 0.00 | 0.00 | 40 | 1014.2 |
| 20260903201851 | 97 | 250 | 3.0 | 0.0 | 185.39 | 0.00 | 0.00 | 39 | 1014.3 |
| 20260903200851 | 98 | 257 | 8.0 | 0.0 | 185.39 | 0.00 | 0.00 | 40 | 1014.5 |
| 20260903200351 | 97 | 329 | 7.0 | 0.0 | 185.39 | 0.00 | 0.00 | 41 | 1014.6 |
| 20260903195851 | 97 | 284 | 4.0 | 0.0 | 185.39 | 0.00 | 0.00 | 41 | 1014.7 |
| 20260903195351 | 97 | 165 | 2.0 | 0.0 | 185.39 | 0.00 | 0.00 | 40 | 1014.8 |
| 20260903194851 | 97 | 257 | 3.0 | 0.0 | 185.39 | 0.00 | 0.00 | 40 | 1015.0 |
| 20260903194351 | 96 | 86 | 2.0 | 0.0 | 185.39 | 0.00 | 0.00 | 42 | 1015.1 |
| 20260903192851 | 96 | 233 | 0.0 | 0.0 | 185.39 | 0.00 | 0.00 | 44 | 1015.5 |
| 20260903192351 | 96 | 233 | 0.0 | 0.0 | 185.39 | 0.00 | 0.00 | 42 | 1015.7 |
| 20260903191851 | 96 | 212 | 4.0 | 0.0 | 185.39 | 0.00 | 0.00 | 42 | 1015.8 |
| 20260903191352 | 97 | 309 | 5.0 | 0.0 | 185.39 | 0.00 | 0.00 | 41 | 1015.9 |
| 20260903190851 | 97 | 232 | 5.0 | 0.0 | 185.39 | 0.00 | 0.00 | 42 | 1016.0 |
| 20260903190351 | 96 | 248 | 3.0 | 0.0 | 185.39 | 0.00 | 0.00 | 42 | 1016.0 |
| 20260903185351 | 96 | 287 | 6.0 | 0.0 | 185.39 | 0.00 | 0.00 | 41 | 1016.0 |
| 20260903184851 | 96 | 165 | 2.0 | 0.0 | 185.39 | 0.00 | 0.00 | 43 | 1015.9 |
| 20260903184351 | 96 | 264 | 6.0 | 0.0 | 185.39 | 0.00 | 0.00 | 43 | 1016.0 |
| 20260903183851 | 95 | 295 | 3.0 | 0.0 | 185.39 | 0.00 | 0.00 | 43 | 1016.0 |
| 20260903183351 | 95 | 257 | 4.0 | 0.0 | 185.39 | 0.00 | 0.00 | 45 | 1016.0 |
| 20260903182852 | 95 | 264 | 4.0 | 0.0 | 185.39 | 0.00 | 0.00 | 45 | 1016.0 |
| 20260903181851 | 95 | 283 | 6.0 | 0.0 | 185.39 | 0.00 | 0.00 | 47 | 1016.1 |
| 20260903181351 | 94 | 252 | 5.0 | 0.0 | 185.39 | 0.00 | 0.00 | 46 | 1016.2 |
| 20260903180851 | 94 | 304 | 8.0 | 0.0 | 185.39 | 0.00 | 0.00 | 46 | 1016.3 |
| 20260903180351 | 93 | 267 | 7.0 | 0.0 | 185.39 | 0.00 | 0.00 | 46 | 1016.4 |
| 20260903175351 | 93 | 298 | 5.0 | 0.0 | 185.39 | 0.00 | 0.00 | 49 | 1016.4 |
| 20260903174851 | 92 | 298 | 5.0 | 0.0 | 185.39 | 0.00 | 0.00 | 50 | 1016.5 |
| 20260903174350 | 92 | 222 | 6.0 | 0.0 | 185.39 | 0.00 | 0.00 | 50 | 1016.6 |
| 20260903173850 | 92 | 301 | 5.0 | 0.0 | 185.39 | 0.00 | 0.00 | 50 | 1016.6 |
| 20260903173351 | 91 | 252 | 4.0 | 0.0 | 185.39 | 0.00 | 0.00 | 51 | 1016.7 |
| 20260903172850 | 91 | 208 | 0.0 | 0.0 | 185.39 | 0.00 | 0.00 | 51 | 1016.7 |
| 20260903171852 | 91 | 208 | 0.0 | 0.0 | 185.39 | 0.00 | 0.00 | 52 | 1016.7 |
| 20260903165850 | 90 | 267 | 0.0 | 0.0 | 185.39 | 0.00 | 0.00 | 55 | 1016.8 |
| 20260903164851 | 89 | 267 | 0.0 | 0.0 | 185.39 | 0.00 | 0.00 | 56 | 1016.9 |
| 20260903164350 | 89 | 267 | 0.0 | 0.0 | 185.39 | 0.00 | 0.00 | 56 | 1016.9 |
| 20260903163850 | 89 | 267 | 0.0 | 0.0 | 185.39 | 0.00 | 0.00 | 56 | 1017.0 |
| 20260903163351 | 89 | 267 | 0.0 | 0.0 | 185.39 | 0.00 | 0.00 | 58 | 1017.0 |
| 20260903162350 | 88 | 256 | 8.0 | 0.0 | 185.39 | 0.00 | 0.00 | 58 | 1017.1 |
| 20260903161851 | 88 | 277 | 3.0 | 0.0 | 185.39 | 0.00 | 0.00 | 58 | 1017.0 |
| 20260903161423 | 88 | 270 | 3.0 | 0.0 | 185.39 | 0.00 | 0.00 | 58 | 1017.1 |
| 20260903161350 | 88 | 270 | 3.0 | 0.0 | 185.39 | 0.00 | 0.00 | 58 | 1017.1 |
| 20260903160850 | 88 | 259 | 4.0 | 0.0 | 185.39 | 0.00 | 0.00 | 59 | 1017.1 |
| 20260903160351 | 88 | 264 | 5.0 | 0.0 | 185.39 | 0.00 | 0.00 | 60 | 1017.1 |
| 20260903155851 | 88 | 269 | 3.0 | 0.0 | 185.39 | 0.00 | 0.00 | 60 | 1017.1 |
| 20260903155350 | 87 | 266 | 2.0 | 0.0 | 185.39 | 0.00 | 0.00 | 60 | 1017.1 |
| 20260903154851 | 87 | 242 | 4.0 | 0.0 | 185.39 | 0.00 | 0.00 | 61 | 1017.1 |
| 20260903154350 | 87 | 269 | 2.0 | 0.0 | 185.39 | 0.00 | 0.00 | 61 | 1017.1 |
| 20260903153351 | 87 | 312 | 4.0 | 0.0 | 185.39 | 0.00 | 0.00 | 61 | 1017.2 |
| 20260903152851 | 86 | 276 | 3.0 | 0.0 | 185.39 | 0.00 | 0.00 | 61 | 1017.2 |
| 20260903152350 | 86 | 283 | 3.0 | 0.0 | 185.39 | 0.00 | 0.00 | 62 | 1017.2 |
| 20260903151352 | 86 | 284 | 4.0 | 0.0 | 185.39 | 0.00 | 0.00 | 62 | 1017.1 |
| 20260903150850 | 86 | 259 | 6.0 | 0.0 | 185.39 | 0.00 | 0.00 | 63 | 1017.0 |
| 20260903150351 | 86 | 260 | 2.0 | 0.0 | 185.39 | 0.00 | 0.00 | 63 | 1017.1 |
| 20260903145350 | 85 | 215 | 2.0 | 0.0 | 185.39 | 0.00 | 0.00 | 63 | 1017.1 |
| 20260903141350 | 83 | 325 | 2.0 | 0.0 | 185.39 | 0.00 | 0.00 | 67 | 1017.0 |
| 20260903135850 | 83 | 229 | 0.0 | 0.0 | 185.39 | 0.00 | 0.00 | 69 | 1017.1 |
| 20260903135350 | 82 | 229 | 0.0 | 0.0 | 185.39 | 0.00 | 0.00 | 69 | 1017.2 |
| 20260903133850 | 81 | 229 | 0.0 | 0.0 | 185.39 | 0.00 | 0.00 | 71 | 1017.1 |
| 20260903132350 | 80 | 229 | 0.0 | 0.0 | 185.39 | 0.00 | 0.00 | 73 | 1017.2 |
| 20260903131350 | 80 | 229 | 0.0 | 0.0 | 185.39 | 0.00 | 0.00 | 74 | 1017.3 |
| 20260903125350 | 79 | 229 | 0.0 | 0.0 | 185.39 | 0.00 | 0.00 | 77 | 1017.4 |
| 20260903124350 | 78 | 229 | 0.0 | 0.0 | 185.39 | 0.00 | 0.00 | 78 | 1017.5 |
| 20260903122850 | 77 | 229 | 0.0 | 0.0 | 185.39 | 0.00 | 0.00 | 79 | 1017.5 |
| 20260903122351 | 77 | 229 | 0.0 | 0.0 | 185.39 | 0.00 | 0.00 | 79 | 1017.6 |
| 20260903115850 | 76 | 229 | 0.0 | 0.0 | 185.39 | 0.00 | 0.00 | 81 | 1017.5 |
| 20260903115350 | 76 | 229 | 0.0 | 0.0 | 185.39 | 0.00 | 0.00 | 81 | 1017.5 |
| 20260903114850 | 76 | 229 | 0.0 | 0.0 | 185.39 | 0.00 | 0.00 | 80 | 1017.4 |
| 20260903114350 | 76 | 229 | 0.0 | 0.0 | 185.39 | 0.00 | 0.00 | 80 | 1017.4 |
| 20260903113350 | 76 | 238 | 0.0 | 0.0 | 185.39 | 0.00 | 0.00 | 80 | 1017.3 |
| 20260903112350 | 76 | 172 | 0.0 | 0.0 | 185.39 | 0.00 | 0.00 | 80 | 1017.2 |
| 20260903111350 | 76 | 340 | 1.0 | 0.0 | 185.39 | 0.00 | 0.00 | 80 | 1017.1 |
| 20260903110850 | 77 | 271 | 0.0 | 0.0 | 185.39 | 0.00 | 0.00 | 80 | 1017.1 |
| 20260903110350 | 77 | 257 | 1.0 | 0.0 | 185.39 | 0.00 | 0.00 | 80 | 1016.9 |
| 20260903105850 | 77 | 307 | 0.0 | 0.0 | 185.39 | 0.00 | 0.00 | 80 | 1016.9 |
| 20260903104351 | 77 | 243 | 1.0 | 0.0 | 185.39 | 0.00 | 0.00 | 80 | 1016.7 |
| 20260903102850 | 77 | 269 | 1.0 | 0.0 | 185.39 | 0.00 | 0.00 | 79 | 1016.6 |
| 20260903101350 | 77 | 257 | 0.0 | 0.0 | 185.39 | 0.00 | 0.00 | 79 | 1016.7 |
| 20260903100850 | 77 | 295 | 4.0 | 0.0 | 185.39 | 0.00 | 0.00 | 79 | 1016.6 |
| 20260903100350 | 77 | 256 | 0.0 | 0.0 | 185.39 | 0.00 | 0.00 | 79 | 1016.6 |
| 20260903094851 | 77 | 245 | 0.0 | 0.0 | 185.39 | 0.00 | 0.00 | 78 | 1016.6 |
| 20260903094351 | 77 | 245 | 0.0 | 0.0 | 185.39 | 0.00 | 0.00 | 78 | 1016.5 |
| 20260903093850 | 77 | 245 | 0.0 | 0.0 | 185.39 | 0.00 | 0.00 | 78 | 1016.5 |
| 20260903093350 | 77 | 245 | 0.0 | 0.0 | 185.39 | 0.00 | 0.00 | 78 | 1016.5 |
| 20260903092850 | 77 | 245 | 0.0 | 0.0 | 185.39 | 0.00 | 0.00 | 78 | 1016.5 |
| 20260903092350 | 77 | 245 | 0.0 | 0.0 | 185.39 | 0.00 | 0.00 | 78 | 1016.4 |
| 20260903091350 | 78 | 245 | 0.0 | 0.0 | 185.39 | 0.00 | 0.00 | 78 | 1016.4 |
| 20260903084850 | 78 | 245 | 0.0 | 0.0 | 185.39 | 0.00 | 0.00 | 79 | 1016.4 |
| 20260903083850 | 77 | 245 | 0.0 | 0.0 | 185.39 | 0.00 | 0.00 | 79 | 1016.4 |
| 20260903083514 | 77 | 245 | 0.0 | 0.0 | 185.39 | 0.00 | 0.00 | 79 | 1016.5 |
| 20260903083350 | 77 | 245 | 0.0 | 0.0 | 185.39 | 0.00 | 0.00 | 79 | 1016.5 |
| 20260903083010 | 77 | 245 | 0.0 | 0.0 | 185.39 | 0.00 | 0.00 | 79 | 1016.5 |
| 20260903082850 | 77 | 245 | 0.0 | 0.0 | 185.39 | 0.00 | 0.00 | 79 | 1016.5 |
| 20260903082513 | 78 | 245 | 0.0 | 0.0 | 185.39 | 0.00 | 0.00 | 79 | 1016.5 |
| 20260903082349 | 78 | 245 | 0.0 | 0.0 | 185.39 | 0.00 | 0.00 | 79 | 1016.5 |
| 20260903081514 | 77 | 245 | 0.0 | 0.0 | 185.39 | 0.00 | 0.00 | 79 | 1016.5 |
| 20260903081351 | 77 | 245 | 0.0 | 0.0 | 185.39 | 0.00 | 0.00 | 79 | 1016.5 |
| 20260903075850 | 77 | 245 | 0.0 | 0.0 | 185.39 | 0.00 | 0.00 | 80 | 1016.5 |
| 20260903075349 | 77 | 245 | 0.0 | 0.0 | 185.39 | 0.00 | 0.00 | 80 | 1016.5 |
| 20260903073850 | 77 | 245 | 0.0 | 0.0 | 185.39 | 0.00 | 0.00 | 80 | 1016.5 |
| 20260903073350 | 77 | 245 | 0.0 | 0.0 | 185.39 | 0.00 | 0.00 | 81 | 1016.5 |
| 20260903072851 | 77 | 245 | 0.0 | 0.0 | 185.39 | 0.00 | 0.00 | 81 | 1016.5 |
| 20260903072350 | 77 | 245 | 0.0 | 0.0 | 185.39 | 0.00 | 0.00 | 81 | 1016.5 |
| 20260903063352 | 77 | 245 | 0.0 | 0.0 | 185.39 | 0.00 | 0.00 | 81 | 1016.7 |
| 20260903061350 | 77 | 245 | 0.0 | 0.0 | 185.39 | 0.00 | 0.00 | 80 | 1016.8 |
| 20260903060850 | 77 | 245 | 0.0 | 0.0 | 185.39 | 0.00 | 0.00 | 80 | 1016.7 |
| 20260903060350 | 77 | 245 | 0.0 | 0.0 | 185.39 | 0.00 | 0.00 | 80 | 1016.7 |
| 20260903055349 | 78 | 245 | 0.0 | 0.0 | 185.39 | 0.00 | 0.00 | 79 | 1016.7 |
| 20260903054349 | 78 | 245 | 0.0 | 0.0 | 185.39 | 0.00 | 0.00 | 79 | 1016.6 |
| 20260903052850 | 78 | 245 | 0.0 | 0.0 | 185.39 | 0.00 | 0.00 | 78 | 1016.6 |
| 20260903052349 | 78 | 245 | 0.0 | 0.0 | 185.39 | 0.00 | 0.00 | 78 | 1016.5 |
| 20260903050350 | 79 | 245 | 0.0 | 0.0 | 185.39 | 0.00 | 0.00 | 77 | 1016.3 |
| 20260903045852 | 79 | 245 | 0.0 | 0.0 | 185.39 | 0.00 | 0.00 | 77 | 1016.3 |
| 20260903045349 | 79 | 245 | 0.0 | 0.0 | 185.39 | 0.00 | 0.00 | 77 | 1016.3 |
| 20260903044349 | 79 | 245 | 0.0 | 0.0 | 185.39 | 0.00 | 0.00 | 77 | 1016.1 |
| 20260903043350 | 79 | 245 | 0.0 | 0.0 | 185.39 | 0.00 | 0.00 | 77 | 1016.1 |
| 20260903034515 | 79 | 245 | 0.0 | 0.0 | 185.39 | 0.00 | 0.00 | 78 | 1016.0 |
| 20260903034349 | 79 | 245 | 0.0 | 0.0 | 185.39 | 0.00 | 0.00 | 78 | 1016.0 |
| 20260903032350 | 79 | 245 | 0.0 | 0.0 | 185.39 | 0.00 | 0.00 | 77 | 1016.3 |
| 20260903031349 | 79 | 245 | 0.0 | 0.0 | 185.39 | 0.00 | 0.00 | 76 | 1016.4 |
| 20260903030350 | 80 | 245 | 0.0 | 0.0 | 185.39 | 0.00 | 0.00 | 77 | 1016.5 |
| 20260903025349 | 79 | 245 | 0.0 | 0.0 | 185.39 | 0.00 | 0.00 | 77 | 1016.6 |
| 20260903022027 | 80 | 245 | 0.0 | 0.0 | 185.39 | 0.00 | 0.00 | 77 | 1016.7 |
| 20260903021524 | 80 | 245 | 0.0 | 0.0 | 185.39 | 0.00 | 0.00 | 77 | 1016.7 |
| 20260903020525 | 80 | 245 | 0.0 | 0.0 | 185.39 | 0.00 | 0.00 | 76 | 1016.7 |
| 20260903015526 | 81 | 245 | 0.0 | 0.0 | 185.39 | 0.00 | 0.00 | 76 | 1016.6 |
| 20260903014025 | 81 | 245 | 0.0 | 0.0 | 185.39 | 0.00 | 0.00 | 75 | 1016.6 |
| 20260903013024 | 82 | 245 | 0.0 | 0.0 | 185.39 | 0.00 | 0.00 | 74 | 1016.6 |
| 20260903012525 | 82 | 245 | 0.0 | 0.0 | 185.39 | 0.00 | 0.00 | 73 | 1016.6 |
| 20260903011025 | 83 | 245 | 0.0 | 0.0 | 185.39 | 0.00 | 0.00 | 72 | 1016.5 |
| 20260903010024 | 83 | 245 | 0.0 | 0.0 | 185.39 | 0.00 | 0.00 | 71 | 1016.5 |
| 20260903005526 | 83 | 245 | 0.0 | 0.0 | 185.39 | 0.00 | 0.00 | 71 | 1016.4 |
| 20260903005024 | 83 | 245 | 0.0 | 0.0 | 185.39 | 0.00 | 0.00 | 70 | 1016.4 |
| 20260903003305 | 85 | 245 | 0.0 | 0.0 | 185.39 | 0.00 | 0.00 | 68 | 1016.2 |
| 20260903003024 | 85 | 245 | 0.0 | 0.0 | 185.39 | 0.00 | 0.00 | 68 | 1016.2 |
| 20260903002525 | 85 | 245 | 0.0 | 0.0 | 185.39 | 0.00 | 0.00 | 67 | 1016.2 |
| 20260903001524 | 86 | 245 | 0.0 | 0.0 | 185.39 | 0.00 | 0.00 | 65 | 1016.1 |
| 20260903001025 | 86 | 245 | 0.0 | 0.0 | 185.39 | 0.00 | 0.00 | 64 | 1016.1 |
| 20260903000527 | 87 | 245 | 0.0 | 0.0 | 185.39 | 0.00 | 0.00 | 63 | 1016.2 |
| 20260903000024 | 88 | 245 | 0.0 | 0.0 | 185.39 | 0.00 | 0.00 | 62 | 1016.2 |
| 20260902235525 | 88 | 245 | 0.0 | 0.0 | 185.39 | 0.00 | 0.00 | 61 | 1016.1 |
| 20260902234524 | 89 | 245 | 0.0 | 0.0 | 185.39 | 0.00 | 0.00 | 59 | 1016.1 |
| 20260902234025 | 90 | 245 | 0.0 | 0.0 | 185.39 | 0.00 | 0.00 | 58 | 1016.0 |
| 20260902233526 | 90 | 245 | 0.0 | 0.0 | 185.39 | 0.00 | 0.00 | 57 | 1016.0 |
| 20260902233024 | 91 | 245 | 0.0 | 0.0 | 185.39 | 0.00 | 0.00 | 56 | 1016.0 |
| 20260902232527 | 91 | 245 | 0.0 | 0.0 | 185.39 | 0.00 | 0.00 | 55 | 1016.0 |
| 20260902231526 | 92 | 245 | 0.0 | 0.0 | 185.39 | 0.00 | 0.00 | 53 | 1016.0 |
| 20260902231025 | 93 | 257 | 0.0 | 0.0 | 185.39 | 0.00 | 0.00 | 52 | 1016.0 |
| 20260902230526 | 93 | 257 | 0.0 | 0.0 | 185.39 | 0.00 | 0.00 | 51 | 1016.0 |
| 20260902230024 | 93 | 257 | 0.0 | 0.0 | 185.39 | 0.00 | 0.00 | 51 | 1016.0 |
| 20260902225525 | 94 | 257 | 0.0 | 0.0 | 185.39 | 0.00 | 0.00 | 49 | 1016.0 |
| 20260902225024 | 94 | 257 | 0.0 | 0.0 | 185.39 | 0.00 | 0.00 | 49 | 1016.1 |
| 20260902224524 | 94 | 257 | 0.0 | 0.0 | 185.39 | 0.00 | 0.00 | 46 | 1016.0 |
| 20260902224025 | 95 | 257 | 0.0 | 0.0 | 185.39 | 0.00 | 0.00 | 46 | 1016.1 |
| 20260902223529 | 95 | 257 | 0.0 | 0.0 | 185.39 | 0.00 | 0.00 | 46 | 1016.0 |
| 20260902223024 | 95 | 257 | 0.0 | 0.0 | 185.39 | 0.00 | 0.00 | 45 | 1016.1 |
| 20260902222525 | 95 | 267 | 4.0 | 0.0 | 185.39 | 0.00 | 0.00 | 43 | 1016.1 |
| 20260902221524 | 96 | 184 | 1.0 | 0.0 | 185.39 | 0.00 | 0.00 | 43 | 1016.1 |
| 20260902221025 | 96 | 222 | 0.0 | 0.0 | 185.39 | 0.00 | 0.00 | 43 | 1016.1 |
| 20260902220024 | 96 | 224 | 2.0 | 0.0 | 185.39 | 0.00 | 0.00 | 42 | 1016.1 |
| 20260902215525 | 96 | 259 | 3.0 | 0.0 | 185.39 | 0.00 | 0.00 | 42 | 1016.2 |
| 20260902215024 | 96 | 329 | 4.0 | 0.0 | 185.39 | 0.00 | 0.00 | 43 | 1016.1 |
| 20260902214524 | 96 | 277 | 4.0 | 0.0 | 185.39 | 0.00 | 0.00 | 42 | 1016.2 |
| 20260902214025 | 96 | 217 | 0.0 | 0.0 | 185.39 | 0.00 | 0.00 | 41 | 1016.2 |
| 20260902213525 | 96 | 219 | 0.0 | 0.0 | 185.39 | 0.00 | 0.00 | 41 | 1016.2 |
| 20260902212525 | 96 | 260 | 9.0 | 0.0 | 185.39 | 0.00 | 0.00 | 40 | 1016.2 |
| 20260902212024 | 96 | 11 | 4.0 | 0.0 | 185.39 | 0.00 | 0.00 | 40 | 1016.2 |